This is the latest recevied weather packets stored in our database for station/object SQ2LXT-10. If no packets are shown the sender has not sent any weather packets the latest 10 day(s).
| Time | Temp. | Humidity | Pressure | Rain* | Wind** | Luminosity | Snow |
|---|---|---|---|---|---|---|---|
| 1777729527 | 26.11° C | 21% | 1015.1 hPa | - | - | - | - |
| 1777728627 | 26.67° C | 21% | 1015.2 hPa | - | - | - | - |
| 1777727727 | 26.67° C | 22% | 1015.4 hPa | - | - | - | - |
| 1777726827 | 26.67° C | 20% | 1015.6 hPa | - | - | - | - |
| 1777725926 | 26.67° C | 22% | 1015.8 hPa | - | - | - | - |
| 1777725026 | 26.11° C | 22% | 1016.1 hPa | - | - | - | - |
| 1777724126 | 26.67° C | 20% | 1016.2 hPa | - | - | - | - |
| 1777723226 | 26.11° C | 21% | 1016.3 hPa | - | - | - | - |
| 1777722326 | 26.11° C | 21% | 1016.6 hPa | - | - | - | - |
| 1777721426 | 25.56° C | 21% | 1016.8 hPa | - | - | - | - |
| 1777720526 | 26.11° C | 22% | 1016.9 hPa | - | - | - | - |
| 1777719625 | 25.56° C | 22% | 1017.1 hPa | - | - | - | - |
| 1777718726 | 25° C | 25% | 1017.3 hPa | - | - | - | - |
| 1777717825 | 24.44° C | 28% | 1017.4 hPa | - | - | - | - |
| 1777716925 | 23.89° C | 28% | 1017.6 hPa | - | - | - | - |
| 1777716025 | 23.33° C | 30% | 1017.7 hPa | - | - | - | - |
| 1777715125 | 22.78° C | 29% | 1017.9 hPa | - | - | - | - |
| 1777714225 | 22.22° C | 28% | 1018.3 hPa | - | - | - | - |
| 1777713325 | 21.67° C | 29% | 1018.4 hPa | - | - | - | - |
| 1777712425 | 21.11° C | 30% | 1018.6 hPa | - | - | - | - |
| 1777711525 | 21.11° C | 32% | 1018.6 hPa | - | - | - | - |
| 1777710625 | 20.56° C | 35% | 1018.7 hPa | - | - | - | - |
| 1777709725 | 20° C | 38% | 1018.8 hPa | - | - | - | - |
| 1777708825 | 18.89° C | 38% | 1018.9 hPa | - | - | - | - |
| 1777707925 | 18.33° C | 37% | 1019 hPa | - | - | - | - |
* Rain since midnight (hover to see other rain measurements)
** Current wind speed in m/s (hover to see current wind gust speed)